Weather History for KFSD - January, 2015

Change the Weather History Date:

Saturday, January 10, 2015

  Actual Average Record
Temperature  
Mean Temperature 10 °F 16 °F  
Max Temperature 25 °F 26 °F 57 °F (2012)
Min Temperature -5 °F 7 °F -26 °F (1982)
Degree Days  
Heating Degree Days 55 49  
Month to date heating degree days 573 490  
Since 1 July heating degree days 3578 3623  
Cooling Degree Days 0 0  
Month to date cooling degree days 0 0  
Year to date cooling degree days 0 0  
Moisture  
Dew Point 4 °F    
Average Humidity 75    
Maximum Humidity 84    
Minimum Humidity 65    
Precipitation  
Precipitation 0.00 in 0.02 in 0.33 in (1975)
Month to date precipitation 0.44 0.19  
Year to date precipitation 0.44 0.19  
Snow  
Snow 0.00 in 0.30 in 4.80 in (1975)
Month to date snowfall 5.8 2.5  
Since 1 July snowfall 20.0 19.4  
Snow Depth 5.00 in    
Sea Level Pressure  
Sea Level Pressure 30.14 in    
Wind  
Wind Speed 8 mph (WSW)    
Max Wind Speed 20 mph    
Max Gust Speed 23 mph    
Visibility 10 miles    
Events      
T = Trace of Precipitation, MM = Missing Value Source: NWS Daily Summary

Daily Weather History Graph

Daily Weather History Graph

Search for Another Location

Airport or City:

Trip Planner

Search our weather history database for the weather conditions in past years. The results will help you decide how hot, cold, wet, or windy it might be!

Date:

Astronomy

Jan. 10, 2015 Rise Set
Actual Time 7:59 AM CST 5:10 PM CST
Civil Twilight 7:27 AM CST 5:42 PM CST
Nautical Twilight 6:51 AM CST 6:17 PM CST
Astronomical Twilight 6:16 AM CST 6:52 PM CST
Moon 10:50 PM CST (1/10) 10:35 AM CST (1/10)
Length of Visible Light 10h 15m
Length of Day
9h 10m
Waning Gibbous, 74% of the Moon is Illuminated
Jan 10
Waning Gibbous
Jan 13
Last Quarter
Jan 20
New
Jan 26
First Quarter
Feb 3
Full

Hourly Weather History & Observations

Time (CST) Temp. Windchill Dew Point Humidity Pressure Visibility Wind Dir Wind Speed Gust Speed Precip Events Conditions
12:56 AM -0.9 °F -12.7 °F -6.0 °F 79% 30.36 in 10.0 mi SSW 5.8 mph - N/A   Clear
1:56 AM -2.0 °F -10.1 °F -8.0 °F 76% 30.33 in 10.0 mi SSW 3.5 mph - N/A   Clear
2:56 AM -0.0 °F -13.0 °F -6.0 °F 76% 30.29 in 10.0 mi SSW 6.9 mph - N/A   Clear
3:56 AM -2.0 °F -15.4 °F -8.0 °F 76% 30.26 in 10.0 mi South 6.9 mph - N/A   Clear
4:56 AM -0.0 °F -13.0 °F -7.1 °F 72% 30.20 in 10.0 mi South 6.9 mph - N/A   Partly Cloudy
5:56 AM 5.0 °F -11.6 °F -5.1 °F 63% 30.14 in 10.0 mi South 12.7 mph - N/A   Partly Cloudy
6:56 AM 6.1 °F -11.6 °F -2.9 °F 67% 30.09 in 10.0 mi South 15.0 mph - N/A   Partly Cloudy
7:56 AM 9.0 °F -7.3 °F -0.0 °F 67% 30.05 in 10.0 mi South 13.8 mph - N/A   Mostly Cloudy
8:56 AM 12.0 °F -4.0 °F 3.0 °F 67% 30.03 in 10.0 mi South 15.0 mph - N/A   Mostly Cloudy
9:56 AM 17.1 °F 3.6 °F 8.1 °F 68% 30.03 in 10.0 mi SSW 12.7 mph - N/A   Overcast
10:56 AM 19.0 °F 8.2 °F 10.0 °F 68% 30.03 in 10.0 mi SW 9.2 mph - N/A   Overcast
11:56 AM 21.0 °F 10.6 °F 12.9 °F 71% 30.01 in 10.0 mi SW 9.2 mph - N/A   Overcast
12:56 PM 23.0 °F 14.7 °F 15.1 °F 72% 30.01 in 10.0 mi West 6.9 mph - N/A   Overcast
1:56 PM 24.1 °F 12.5 °F 15.1 °F 69% 30.03 in 10.0 mi NW 12.7 mph - N/A   Mostly Cloudy
2:56 PM 23.0 °F 12.4 °F 12.9 °F 65% 30.06 in 10.0 mi NW 10.4 mph - N/A   Scattered Clouds
3:56 PM 21.2 °F 10.1 °F 12.2 °F 68% 30.00 in 10.0 mi NNW 10.4 mph - N/A   Scattered Clouds
4:56 PM 17.1 °F 8.7 °F 9.0 °F 71% 30.12 in 10.0 mi North 5.8 mph - N/A   Partly Cloudy
5:56 PM 14.0 °F 3.9 °F 7.0 °F 74% 30.15 in 10.0 mi NNW 6.9 mph - N/A   Partly Cloudy
6:56 PM 12.9 °F 6.9 °F 8.1 °F 81% 30.18 in 10.0 mi NW 3.5 mph - N/A   Clear
7:56 PM 9.0 °F - 3.9 °F 80% 30.20 in 10.0 mi Calm Calm - N/A   Clear
8:56 PM 8.1 °F 1.4 °F 3.9 °F 83% 30.22 in 10.0 mi North 3.5 mph - N/A   Scattered Clouds
9:56 PM 10.9 °F -1.8 °F 3.9 °F 73% 30.21 in 10.0 mi NNE 9.2 mph - N/A   Scattered Clouds
10:56 PM 8.1 °F - -0.0 °F 70% 30.20 in 10.0 mi Calm Calm - N/A   Clear
11:56 PM 7.0 °F - 1.0 °F 77% 30.21 in 10.0 mi Calm Calm - N/A   Clear